This is the latest recevied weather packets stored in our database for station/object SA6BET-2. If no packets are shown the sender has not sent any weather packets the latest 10 day(s).
| Time | Temp. | Humidity | Pressure | Rain* | Wind** | Luminosity | Snow |
|---|---|---|---|---|---|---|---|
| 1777763965 | 18.33° C | 100% | 1019.4 hPa | - | - | - | - |
| 1777763064 | 18.33° C | 100% | 1019.2 hPa | - | - | - | - |
| 1777762164 | 18.33° C | 100% | 1019.4 hPa | - | - | - | - |
| 1777761264 | 18.33° C | 100% | 1019.5 hPa | - | - | - | - |
| 1777760364 | 18.33° C | 100% | 1019.6 hPa | - | - | - | - |
| 1777759464 | 17.78° C | 100% | 1019.6 hPa | - | - | - | - |
| 1777758564 | 18.33° C | 100% | 1019.8 hPa | - | - | - | - |
| 1777757663 | 18.33° C | 100% | 1020 hPa | - | - | - | - |
| 1777756763 | 18.33° C | 100% | 1020.1 hPa | - | - | - | - |
| 1777755863 | 18.33° C | 100% | 1020.1 hPa | - | - | - | - |
| 1777754963 | 18.33° C | 100% | 1019.9 hPa | - | - | - | - |
| 1777754063 | 18.33° C | 100% | 1019.6 hPa | - | - | - | - |
| 1777753162 | 18.33° C | 100% | 1019.6 hPa | - | - | - | - |
| 1777752262 | 18.33° C | 100% | 1019.4 hPa | - | - | - | - |
| 1777751362 | 18.33° C | 100% | 1019.5 hPa | - | - | - | - |
| 1777750462 | 18.33° C | 100% | 1019.4 hPa | - | - | - | - |
| 1777749562 | 18.89° C | 100% | 1019.4 hPa | - | - | - | - |
| 1777748662 | 18.89° C | 100% | 1019.4 hPa | - | - | - | - |
| 1777747762 | 18.89° C | 100% | 1019.4 hPa | - | - | - | - |
| 1777746861 | 19.44° C | 100% | 1019.3 hPa | - | - | - | - |
| 1777745961 | 19.44° C | 100% | 1019.4 hPa | - | - | - | - |
| 1777745061 | 20° C | 100% | 1019.4 hPa | - | - | - | - |
| 1777744161 | 20° C | 100% | 1019.6 hPa | - | - | - | - |
| 1777743261 | 20.56° C | 100% | 1019.6 hPa | - | - | - | - |
| 1777742360 | 20.56° C | 100% | 1019.7 hPa | - | - | - | - |
* Rain since midnight (hover to see other rain measurements)
** Current wind speed in m/s (hover to see current wind gust speed)